#timestamp,LO_Frequency,Hit,StdDev 
1513324815.7,286047000.2,N
1513324835.5,286047002.9,N
1513324855.4,286047002.9,N
1513324875.2,286046996.9,N
1513324895.0,286046999.3,N
1513324895.9,286046999.3,N
1513324915.8,286046997.5,N
1513324935.6,286046991.7,Y
1513324955.5,286046996.2,P
1513324975.3,286046998.3,N
1513324995.1,286047003.4,N
1513325015.9,286047003.5,N
1513325035.7,286047000.0,N
1513325055.5,286046993.9,N
1513325075.4,286046995.8,N
1513325095.2,286046995.2,N
1513325115.0,286046992.2,N
1513325116.0,286046992.2,N
1513325135.8,286046990.5,N
1513325155.6,286046993.7,N
1513325175.5,286046993.8,N
1513325195.3,286046999.6,N
1513325215.1,286046996.6,N
1513325235.9,286047004.9,N
1513325255.7,286047002.4,N
1513325275.6,286047000.2,N
1513325295.4,286047005.9,N
1513325315.2,286047005.1,N
1513325335.1,286046999.7,N
1513325336.0,286046999.7,N
1513325355.8,286047001.7,N
1513325375.6,286047004.5,N
1513325395.5,286046999.8,N
1513325415.3,286047004.2,N
1513325435.2,286047002.5,N
1513325455.9,286047004.4,N
1513325475.7,286047003.1,N
1513325495.6,286047003.5,N
1513325515.4,286047011.5,N
1513325535.2,286047013.8,N
1513325555.1,286047014.6,N
1513325556.0,286047014.6,N
1513325575.8,286047017.0,N
1513325595.7,286047018.5,N
1513325615.5,286047018.6,N
1513325635.3,286047017.6,N
1513325655.2,286047017.7,N
1513325675.0,286047018.9,N
1513325675.9,286047018.9,N
1513325695.8,286047020.9,N
1513325715.6,286047020.6,N
1513325735.4,286047022.6,N
1513325755.3,286047023.0,N
1513325775.1,286047025.0,Y
1513325795.9,286047011.3,P
1513325815.7,286047013.6,P
1513325835.5,286047009.8,P
1513325855.4,286047011.1,Y
1513325875.2,286047007.0,P
1513325895.0,286046999.7,N
1513325896.0,286046999.7,N
1513325915.8,286046999.1,N
1513325935.6,286046994.7,N
1513325955.5,286046989.2,N
1513325975.3,286046986.3,N
1513325995.1,286046983.9,N
1513326015.9,286046984.0,N
1513326035.7,286046986.8,N
1513326055.6,286046979.1,N
1513326075.4,286046977.9,N
1513326095.2,286046978.9,N
1513326115.1,286046977.8,N
1513326116.0,286046977.8,N
1513326135.8,286046978.6,N
1513326155.6,286046978.5,N
1513326175.5,286046976.5,N
1513326195.3,286046983.0,N
1513326215.2,286046980.8,N
1513326235.9,286046981.5,N
1513326255.7,286046983.1,N
1513326275.6,286046983.6,N
1513326295.4,286046981.1,N
1513326315.3,286046983.2,N
1513326335.1,286046991.2,N
1513326336.0,286046991.2,N
1513326355.8,286046985.8,N
1513326375.7,286046984.8,N
1513326395.5,286046982.7,N
1513326415.3,286046986.6,N
1513326435.2,286046984.9,N
1513326455.0,286046980.8,Y
1513326455.9,286046980.8,P
1513326475.8,286047002.0,N
1513326495.6,286047003.3,N
1513326515.4,286047001.6,N
1513326535.3,286047001.4,N
1513326555.1,286047003.1,N
1513326575.9,286047002.5,N
1513326595.7,286047002.4,N
1513326615.5,286047001.2,N
1513326635.4,286047000.7,N
1513326655.2,286047000.5,N
1513326675.0,286046998.9,N
1513326675.9,286046998.9,N
1513326695.8,286047001.9,N
1513326715.6,286047001.6,N
1513326735.5,286047002.7,N
1513326755.3,286046999.5,N
1513326775.1,286046996.3,N
1513326795.9,286046993.4,N
1513326815.7,286046995.6,N
1513326835.5,286046992.1,N
1513326855.4,286046992.2,N
1513326875.2,286046990.1,N
1513326895.1,286046989.0,N
1513326896.0,286046989.0,N
1513326915.8,286046989.7,N
1513326935.6,286046990.2,N
1513326955.5,286046989.1,N
1513326975.3,286046991.4,N
1513326995.2,286046987.0,N
1513327015.9,286046985.4,N
1513327035.7,286046989.8,N
1513327055.6,286046988.6,N
1513327075.4,286046988.9,N
1513327095.2,286046987.6,N
1513327115.1,286046988.3,N
1513327116.0,286046988.3,N
1513327135.8,286046982.2,Y
1513327155.7,286046988.1,P
1513327175.5,286046988.7,P
1513327195.3,286046989.8,P
1513327215.2,286046985.8,Y
1513327235.0,286046997.6,P
1513327235.9,286046997.6,N
1513327255.8,286046997.2,N
1513327275.6,286046990.7,N
1513327295.4,286046984.0,Y
1513327315.3,286046994.4,P
1513327335.1,286046992.3,P
1513327355.9,286046994.8,P
1513327375.7,286046988.5,Y
1513327395.5,286046998.1,P
1513327415.4,286047004.3,N
1513327435.2,286047002.3,N
1513327455.0,286046998.1,N
1513327456.0,286046998.1,N
1513327475.8,286047005.6,N
1513327495.6,286047006.2,N
1513327515.5,286047007.9,N
1513327535.3,286047008.0,N
1513327555.1,286047006.0,N
1513327575.9,286047007.2,N
1513327595.7,286047005.1,N
1513327615.6,286047004.5,N
1513327635.4,286047008.0,N
1513327655.2,286047010.3,N
1513327675.1,286047003.2,N
1513327676.0,286047003.2,N
1513327695.8,286047001.5,N
1513327715.6,286047003.2,N
1513327735.5,286047000.4,N
1513327755.3,286047007.0,N
1513327775.2,286047009.2,N
1513327795.9,286047006.7,N
1513327815.7,286047007.8,N
1513327835.6,286047006.2,N
1513327855.4,286047008.4,N
1513327875.2,286047006.5,N
1513327895.1,286047003.4,N
1513327896.0,286047003.4,N
1513327915.8,286047003.3,N
1513327935.7,286047004.3,N
1513327955.5,286047003.9,N
1513327975.3,286047008.9,N
1513327995.2,286047008.0,N
1513328015.0,286047006.6,N
1513328015.9,286047006.6,N
1513328035.8,286047003.2,N
1513328055.6,286047007.7,Y
1513328075.4,286047003.5,P
1513328095.3,286047005.2,P
1513328115.1,286047006.8,P
1513328135.9,286047007.5,Y
1513328155.7,286047000.2,P
1513328175.5,286047001.1,N
1513328195.4,286047002.8,N
1513328215.2,286047001.0,N
1513328235.0,286046997.9,N
1513328235.9,286046997.9,N
1513328255.8,286046999.1,N
1513328275.6,286047005.8,N
1513328295.5,286046995.3,N
1513328315.3,286046996.9,N
1513328335.1,286046988.6,Y
1513328355.9,286046992.8,P
1513328375.7,286046992.9,N
1513328395.5,286046995.6,N
